Voltar ao catálogo

SL-8 DEB

AtivoLEO
NORAD 6210·DEBRIS·🇷🇺 Russia

Lançado Sep 29, 1972 de Plesetsk Cosmodrome

Loading…

Próximas Passagens (próximas 24 horas)

TLE

AtualizadoSource: Space-Track

Época: Sep 14, 2026, 14:43 UTC

1 06210U 72074C   26257.61337269 -.00000065  00000-0  16972-4 0  9999
2 06210  65.8274  23.1097 0010545 345.8722  25.7188 13.73653410704781

Acompanhe SL-8 DEB em tempo real com AllMySat

Download on the App Store